Other Surface Observations
Issued by NWS

Home | Current Version | Previous Version | Text Only | Print | Product List | Glossary On
Versions: 1 2 3 4 5 6 7 8 9 10 11 12 13 14 15 16 17 18 19 20 21 22 23 24 25 26 27 28 29 30 31 32 33 34 35 36 37 38 39 40 41 42 43 44 45 46 47 48 49 50
000
SXUS52 KTAE 130218
OSOTAE
OSOTAE
North Florida/South Alabama/Southwest Georgia Weather Roundup
National Weather Service Tallahassee Florida
1000 PM EDT SAT JUL 12 2014

Note: "fair" indicates few or no clouds below 12,000 feet with no
significant weather and/or obstructions to visibility.

!FLZ017-115-028-034-025-130300
...North Florida...

CITY           SKY/WX    TMP DP  RH WIND       PRES   REMARKS
TALLAHASSEE    CLOUDY    78  71  79 E5        30.11F
APALACHICOLA   PTCLDY    80  74  81 CALM      30.11R
PERRY          CLOUDY    72  72 100 E6        30.13S
CROSS CITY       N/A     74  71  91 CALM      30.11F
HOMERVILLE     FAIR      73  73 100 E3        30.14S
JACKSONVILLE   MOCLDY    75  75 100 CALM      30.14S
$$

!FLZ112-006-005-002-011-130300
...Florida Panhandle...

CITY           SKY/WX    TMP DP  RH WIND       PRES   REMARKS
MARIANNA       MOCLDY    74  74 100 SE3       30.11F
BONIFAY        FAIR      74  73  97 SE5       30.11F
PANAMA CITY NW FAIR      76  73  91 E5        30.10S
TYNDALL AFB    NOT AVBL
TYND DRONE APT NOT AVBL
DE FUNIAK SPR  FAIR      75  74  95 SE5       30.12R
EGLIN AFB      NOT AVBL
DESTIN         MOCLDY    83  74  74 S5        30.10S
HURLBURT       NOT AVBL
CRESTVIEW      CLOUDY    76  74  93 CALM      30.12R
PENSACOLA      CLOUDY    81  75  82 NW7       30.10R
$$

!ALZ063-066-130300
...South Alabama...

CITY           SKY/WX    TMP DP  RH WIND       PRES   REMARKS
DOTHAN         MOCLDY    75  73  93 CALM      30.15F
OZARK CAIRNS   NOT AVBL
FT RUCKER HELI MOCLDY    74  71  91 CALM      30.10F
RUCKER HELI 3  NOT AVBL
RUCKER HELI 2  FAIR      75  72  90 E5        30.11F
FLORALA APT    CLOUDY    73  71  93 CALM      30.14R
ANDALUSIA      CLOUDY    78  70  76 CALM      30.12R
TROY           CLEAR     78  70  76 S6        30.12R
EUFALA         FAIR      79  72  79 SE8       30.11R
MOBILE         MOCLDY    80  77  90 SE5       30.10R
$$

!GAZ120>161-130300
...Southwest and South Central Georgia...

CITY           SKY/WX    TMP DP  RH WIND       PRES   REMARKS
THOMASVILLE    FAIR      73  73 100 S3        30.12S
BAINBRIDGE     CLOUDY    79  77  94 CALM      30.11S
MOODY AFB      NOT AVBL
VALDOSTA       CLOUDY    77  71  82 CALM      30.12F
MOULTRIE       CLOUDY    72  72 100 CALM      30.13S
BLAKELY        MOCLDY    77  75  94 CALM      30.13S
ALBANY         PTCLDY    74  72  93 E3        30.14F
TIFTON         FAIR      73  72  97 CALM      30.12F
FITZGERALD     FAIR      75  73  91 CALM      30.16S
CORDELE        FAIR      80  71  74 S5        30.14S
AMERICUS       FAIR      77  72  83 SW5       30.14F
$$

!GMZ750-755-770-775-130300
...Coastal and Buoy Obs...

STATION/POSITION TIME  TEMP    WIND        PRES    VSBY  WAVE
                       AIR SEA DIR/SP/G                  HT/PER
                 (UTC) (F)     (DEG/KT/KT) (MB)    (MI)  (FT/S)
KEATON BEACH     0200   75      60/  5/  7 1020.0R
CEDAR KEY        0200   76      40/  6/  8 1020.3R
C TOWER          0200   81      60/  4/  5 1019.6R
APALACHICOLA BUO 0200   83 85  100/ 10/ 12 1019.2R         1/ 8
PANAMA CITY BUOY 0144   82 85   70/  4/  6 1019.7R         1/ 7
MOBILE BUOY      0053   83 88  220/  4/  6 1018.6
ORANGE BCH AL BU 0200   83 85  200/  6/  8 1018.7R         1/ 3
$$



USA.gov is the U.S. government's official web portal to all federal, state and local government web resources and services.